Precipitable_Water
0.36 0.36 0.36 0.36 0.34 0.34 0.34 0.34 0.34 0.34 0.34 0.34 0.32 0.32 0.32 0.32 0.32 0.32 0.32 0.32 0.32 0.32 0.32 0.32 0.32 0.32 0.32 0.32 0.32 0.32 0.30 0.30 0.30 0.30 0.30 0.30 0.30 0.32 0.32 0.32 0.32 0.32 0.32 0.32 0.32 0.32 0.32 0.30 0.30 0.30 0.30 0.30 0.28 0.28 0.26 0.26 0.24 0.24 0.22 0.22 0.22 0.22 0.22 0.24 0.24 0.24 0.28 0.32 0.34
0.36 0.36 0.36 0.36 0.36 0.36 0.36 0.34 0.34 0.34 0.34 0.34 0.34 0.34 0.34 0.34 0.32 0.32 0.32 0.32 0.32 0.32 0.32 0.34 0.34 0.34 0.34 0.34 0.32 0.32 0.32 0.30 0.30 0.30 0.30 0.30 0.32 0.32 0.32 0.32 0.32 0.32 0.32 0.32 0.32 0.30 0.30 0.30 0.30 0.30 0.30 0.30 0.28 0.28 0.26 0.26 0.26 0.24 0.22 0.22 0.22 0.22 0.22 0.22 0.24 0.24 0.26 0.28 0.32
0.38 0.38 0.36 0.36 0.36 0.36 0.36 0.34 0.34 0.34 0.34 0.34 0.34 0.34 0.34 0.34 0.34 0.34 0.34 0.34 0.34 0.34 0.34 0.34 0.34 0.34 0.34 0.34 0.32 0.32 0.32 0.30 0.30 0.30 0.30 0.32 0.32 0.32 0.32 0.34 0.32 0.32 0.32 0.30 0.30 0.30 0.30 0.30 0.30 0.28 0.28 0.28 0.28 0.28 0.26 0.26 0.26 0.24 0.24 0.22 0.22 0.22 0.22 0.22 0.22 0.24 0.24 0.26 0.32
0.38 0.36 0.36 0.36 0.36 0.34 0.34 0.34 0.34 0.34 0.34 0.34 0.34 0.34 0.34 0.34 0.34 0.34 0.34 0.34 0.34 0.34 0.34 0.32 0.32 0.32 0.32 0.32 0.32 0.30 0.30 0.30 0.30 0.30 0.30 0.30 0.32 0.32 0.34 0.34 0.32 0.32 0.32 0.32 0.30 0.30 0.30 0.30 0.30 0.30 0.28 0.28 0.28 0.26 0.26 0.26 0.26 0.24 0.24 0.24 0.24 0.24 0.22 0.22 0.22 0.22 0.24 0.24 0.26
0.36 0.36 0.36 0.34 0.34 0.34 0.34 0.34 0.34 0.34 0.34 0.34 0.34 0.34 0.34 0.34 0.34 0.34 0.34 0.34 0.34 0.34 0.34 0.32 0.32 0.32 0.32 0.30 0.30 0.30 0.30 0.30 0.30 0.30 0.30 0.30 0.32 0.32 0.34 0.34 0.32 0.32 0.32 0.32 0.32 0.32 0.32 0.32 0.30 0.30 0.28 0.28 0.28 0.26 0.26 0.26 0.26 0.26 0.24 0.24 0.24 0.24 0.24 0.22 0.22 0.22 0.22 0.24 0.24
0.34 0.34 0.34 0.34 0.34 0.34 0.32 0.32 0.32 0.32 0.32 0.32 0.32 0.32 0.32 0.32 0.32 0.32 0.32 0.32 0.32 0.32 0.32 0.32 0.30 0.30 0.30 0.30 0.28 0.28 0.30 0.30 0.30 0.30 0.30 0.30 0.32 0.32 0.32 0.32 0.32 0.32 0.32 0.32 0.32 0.32 0.32 0.32 0.32 0.30 0.30 0.28 0.28 0.28 0.26 0.26 0.26 0.26 0.26 0.24 0.24 0.24 0.24 0.24 0.22 0.22 0.22 0.22 0.22
0.34 0.34 0.34 0.32 0.32 0.32 0.30 0.30 0.30 0.30 0.30 0.28 0.28 0.28 0.28 0.28 0.28 0.28 0.28 0.28 0.30 0.30 0.30 0.30 0.28 0.28 0.28 0.28 0.28 0.28 0.28 0.28 0.30 0.30 0.30 0.30 0.32 0.32 0.32 0.32 0.32 0.32 0.32 0.32 0.32 0.32 0.32 0.32 0.32 0.30 0.30 0.28 0.28 0.26 0.26 0.26 0.26 0.26 0.24 0.24 0.24 0.24 0.24 0.24 0.22 0.22 0.22 0.22 0.22
0.32 0.32 0.32 0.30 0.30 0.28 0.28 0.28 0.26 0.26 0.26 0.26 0.26 0.24 0.24 0.24 0.26 0.26 0.26 0.26 0.26 0.26 0.24 0.26 0.26 0.26 0.26 0.26 0.26 0.26 0.28 0.28 0.28 0.30 0.30 0.30 0.30 0.30 0.32 0.32 0.32 0.32 0.32 0.32 0.32 0.32 0.32 0.32 0.32 0.30 0.30 0.30 0.28 0.26 0.26 0.26 0.26 0.24 0.24 0.24 0.24 0.24 0.24 0.24 0.24 0.24 0.24 0.22 0.22
0.30 0.30 0.28 0.28 0.26 0.26 0.26 0.24 0.24 0.24 0.22 0.22 0.22 0.22 0.22 0.22 0.22 0.22 0.24 0.24 0.22 0.22 0.24 0.24 0.24 0.24 0.24 0.24 0.26 0.26 0.26 0.26 0.26 0.28 0.28 0.28 0.30 0.30 0.30 0.30 0.30 0.32 0.32 0.32 0.32 0.32 0.32 0.32 0.30 0.30 0.30 0.30 0.28 0.26 0.26 0.26 0.24 0.24 0.24 0.24 0.24 0.24 0.24 0.24 0.24 0.24 0.24 0.24 0.24
0.28 0.28 0.26 0.24 0.24 0.24 0.22 0.22 0.22 0.22 0.20 0.20 0.20 0.20 0.20 0.20 0.20 0.20 0.20 0.20 0.22 0.22 0.22 0.22 0.22 0.22 0.22 0.22 0.24 0.24 0.24 0.24 0.26 0.26 0.26 0.28 0.28 0.28 0.28 0.28 0.30 0.30 0.30 0.30 0.30 0.30 0.30 0.30 0.30 0.30 0.30 0.30 0.28 0.28 0.26 0.26 0.24 0.24 0.24 0.24 0.24 0.24 0.24 0.24 0.24 0.24 0.24 0.24 0.24
0.28 0.26 0.24 0.24 0.24 0.22 0.22 0.20 0.20 0.18 0.18 0.18 0.18 0.18 0.18 0.18 0.18 0.18 0.18 0.20 0.20 0.20 0.20 0.20 0.20 0.20 0.22 0.22 0.22 0.22 0.22 0.22 0.24 0.24 0.24 0.26 0.26 0.26 0.26 0.28 0.28 0.28 0.28 0.28 0.28 0.28 0.28 0.28 0.28 0.28 0.28 0.28 0.28 0.28 0.28 0.26 0.26 0.24 0.24 0.24 0.24 0.24 0.22 0.24 0.24 0.24 0.24 0.24 0.22
0.26 0.24 0.24 0.22 0.22 0.20 0.20 0.18 0.18 0.17 0.17 0.17 0.17 0.17 0.17 0.17 0.17 0.17 0.18 0.18 0.18 0.18 0.18 0.18 0.20 0.20 0.20 0.20 0.20 0.22 0.22 0.22 0.24 0.24 0.24 0.24 0.24 0.24 0.26 0.26 0.26 0.26 0.26 0.26 0.26 0.26 0.28 0.28 0.28 0.28 0.28 0.28 0.28 0.28 0.28 0.26 0.26 0.24 0.24 0.24 0.22 0.22 0.22 0.22 0.24 0.24 0.24 0.24 0.22
0.26 0.24 0.22 0.22 0.20 0.20 0.18 0.17 0.17 0.17 0.15 0.15 0.15 0.15 0.15 0.15 0.17 0.17 0.17 0.17 0.17 0.17 0.17 0.18 0.18 0.18 0.20 0.20 0.20 0.20 0.22 0.22 0.22 0.24 0.24 0.24 0.24 0.24 0.24 0.26 0.26 0.26 0.26 0.26 0.26 0.26 0.26 0.26 0.26 0.26 0.26 0.26 0.28 0.28 0.28 0.26 0.26 0.24 0.24 0.24 0.22 0.22 0.22 0.22 0.22 0.24 0.24 0.24 0.22
0.24 0.22 0.20 0.20 0.18 0.18 0.17 0.17 0.15 0.15 0.15 0.15 0.15 0.15 0.15 0.15 0.15 0.17 0.17 0.17 0.17 0.17 0.18 0.18 0.18 0.18 0.20 0.20 0.20 0.20 0.20 0.22 0.22 0.22 0.24 0.24 0.24 0.24 0.24 0.26 0.26 0.26 0.26 0.26 0.26 0.26 0.26 0.26 0.26 0.26 0.26 0.26 0.26 0.26 0.26 0.26 0.26 0.26 0.24 0.24 0.22 0.22 0.22 0.22 0.22 0.22 0.24 0.22 0.22
0.22 0.20 0.18 0.18 0.17 0.17 0.15 0.15 0.15 0.15 0.15 0.15 0.15 0.15 0.15 0.15 0.17 0.17 0.18 0.18 0.18 0.18 0.18 0.18 0.18 0.20 0.20 0.20 0.20 0.22 0.22 0.22 0.22 0.22 0.22 0.24 0.24 0.24 0.24 0.26 0.26 0.26 0.26 0.26 0.28 0.28 0.28 0.28 0.26 0.26 0.26 0.26 0.26 0.26 0.26 0.26 0.26 0.26 0.26 0.24 0.24 0.24 0.22 0.22 0.24 0.24 0.24 0.22 0.22
0.22 0.20 0.18 0.17 0.17 0.15 0.15 0.15 0.15 0.15 0.15 0.15 0.15 0.17 0.17 0.17 0.17 0.18 0.18 0.18 0.18 0.20 0.20 0.20 0.20 0.20 0.22 0.22 0.22 0.22 0.22 0.22 0.24 0.24 0.24 0.24 0.24 0.24 0.24 0.26 0.26 0.26 0.26 0.28 0.28 0.28 0.28 0.28 0.28 0.28 0.28 0.26 0.26 0.26 0.26 0.26 0.26 0.26 0.26 0.26 0.24 0.24 0.24 0.24 0.24 0.24 0.24 0.24 0.22
0.20 0.18 0.17 0.17 0.15 0.15 0.15 0.15 0.15 0.15 0.15 0.17 0.17 0.17 0.17 0.17 0.18 0.18 0.18 0.18 0.20 0.20 0.20 0.20 0.20 0.20 0.22 0.22 0.22 0.22 0.24 0.24 0.24 0.24 0.24 0.24 0.24 0.24 0.26 0.26 0.26 0.26 0.28 0.28 0.28 0.28 0.28 0.28 0.28 0.28 0.28 0.28 0.26 0.26 0.26 0.26 0.26 0.26 0.26 0.26 0.26 0.24 0.24 0.24 0.24 0.24 0.24 0.24 0.24
0.18 0.17 0.17 0.15 0.15 0.15 0.15 0.15 0.15 0.15 0.17 0.17 0.17 0.17 0.17 0.18 0.18 0.18 0.18 0.18 0.20 0.20 0.20 0.20 0.20 0.20 0.22 0.22 0.22 0.22 0.24 0.24 0.24 0.24 0.24 0.26 0.26 0.26 0.26 0.26 0.26 0.28 0.28 0.28 0.28 0.28 0.28 0.28 0.28 0.28 0.28 0.28 0.26 0.26 0.26 0.26 0.26 0.26 0.26 0.26 0.26 0.26 0.26 0.26 0.26 0.26 0.24 0.24 0.24
0.17 0.17 0.17 0.15 0.15 0.15 0.15 0.15 0.17 0.17 0.17 0.17 0.17 0.17 0.17 0.17 0.17 0.18 0.18 0.18 0.18 0.18 0.20 0.20 0.20 0.20 0.20 0.22 0.22 0.22 0.22 0.24 0.24 0.24 0.24 0.24 0.26 0.26 0.26 0.26 0.26 0.28 0.28 0.28 0.28 0.28 0.28 0.28 0.28 0.28 0.28 0.28 0.26 0.26 0.26 0.26 0.26 0.26 0.26 0.26 0.26 0.26 0.26 0.26 0.26 0.26 0.26 0.24 0.24
0.17 0.15 0.15 0.15 0.15 0.15 0.17 0.17 0.17 0.17 0.17 0.17 0.17 0.17 0.17 0.17 0.17 0.17 0.18 0.18 0.18 0.18 0.18 0.20 0.20 0.20 0.20 0.20 0.22 0.22 0.22 0.22 0.22 0.24 0.24 0.24 0.24 0.26 0.26 0.26 0.26 0.26 0.28 0.28 0.28 0.28 0.28 0.28 0.28 0.28 0.26 0.26 0.26 0.26 0.26 0.26 0.26 0.26 0.26 0.26 0.26 0.26 0.26 0.28 0.26 0.26 0.26 0.26 0.26
0.17 0.15 0.15 0.15 0.17 0.17 0.17 0.17 0.17 0.17 0.17 0.17 0.17 0.17 0.17 0.17 0.17 0.17 0.17 0.18 0.18 0.18 0.18 0.20 0.20 0.20 0.20 0.20 0.20 0.22 0.22 0.22 0.22 0.22 0.24 0.24 0.24 0.24 0.26 0.26 0.26 0.26 0.26 0.26 0.26 0.26 0.26 0.26 0.26 0.26 0.26 0.26 0.26 0.26 0.26 0.26 0.26 0.26 0.26 0.26 0.26 0.28 0.28 0.28 0.28 0.26 0.26 0.26 0.26
0.15 0.15 0.15 0.17 0.17 0.17 0.17 0.17 0.17 0.17 0.15 0.15 0.15 0.15 0.15 0.15 0.17 0.17 0.17 0.18 0.18 0.18 0.18 0.20 0.20 0.20 0.20 0.20 0.20 0.22 0.22 0.22 0.22 0.22 0.24 0.24 0.24 0.24 0.26 0.26 0.26 0.26 0.26 0.26 0.26 0.26 0.26 0.26 0.26 0.26 0.26 0.26 0.26 0.26 0.26 0.26 0.26 0.26 0.26 0.26 0.26 0.26 0.28 0.28 0.28 0.28 0.26 0.26 0.26
0.15 0.17 0.17 0.17 0.17 0.17 0.17 0.17 0.15 0.15 0.15 0.15 0.15 0.15 0.15 0.15 0.17 0.17 0.17 0.18 0.18 0.18 0.20 0.20 0.20 0.20 0.20 0.22 0.22 0.22 0.22 0.22 0.22 0.22 0.24 0.24 0.24 0.24 0.24 0.24 0.26 0.24 0.24 0.24 0.26 0.26 0.26 0.26 0.26 0.26 0.26 0.26 0.26 0.26 0.26 0.26 0.26 0.26 0.26 0.26 0.26 0.26 0.28 0.28 0.28 0.28 0.28 0.28 0.26
0.17 0.17 0.17 0.17 0.17 0.17 0.15 0.15 0.15 0.15 0.15 0.15 0.15 0.15 0.15 0.15 0.17 0.17 0.18 0.18 0.18 0.20 0.20 0.20 0.22 0.22 0.22 0.22 0.22 0.22 0.22 0.24 0.24 0.22 0.24 0.24 0.24 0.24 0.24 0.24 0.24 0.24 0.24 0.24 0.24 0.26 0.26 0.26 0.26 0.26 0.26 0.26 0.26 0.26 0.26 0.26 0.26 0.26 0.26 0.26 0.26 0.26 0.26 0.28 0.28 0.28 0.28 0.28 0.28
0.17 0.17 0.17 0.17 0.15 0.15 0.15 0.15 0.13 0.13 0.13 0.15 0.15 0.15 0.15 0.17 0.17 0.17 0.18 0.20 0.20 0.20 0.22 0.22 0.22 0.24 0.24 0.24 0.24 0.24 0.24 0.24 0.24 0.24 0.22 0.22 0.24 0.24 0.24 0.24 0.24 0.24 0.24 0.24 0.24 0.26 0.26 0.26 0.26 0.26 0.26 0.26 0.26 0.26 0.26 0.26 0.26 0.26 0.26 0.26 0.26 0.26 0.26 0.26 0.26 0.26 0.28 0.28 0.28
0.17 0.17 0.17 0.15 0.15 0.15 0.15 0.13 0.13 0.13 0.13 0.15 0.15 0.15 0.17 0.17 0.17 0.18 0.18 0.20 0.20 0.22 0.22 0.22 0.24 0.24 0.24 0.24 0.24 0.24 0.24 0.24 0.24 0.24 0.24 0.22 0.22 0.22 0.24 0.24 0.24 0.24 0.24 0.24 0.24 0.24 0.26 0.26 0.26 0.26 0.26 0.26 0.26 0.26 0.26 0.26 0.28 0.28 0.28 0.28 0.28 0.28 0.26 0.26 0.26 0.26 0.26 0.26 0.26
0.17 0.17 0.15 0.15 0.15 0.15 0.13 0.13 0.13 0.15 0.15 0.15 0.15 0.17 0.17 0.17 0.18 0.18 0.18 0.20 0.20 0.22 0.22 0.24 0.24 0.24 0.24 0.24 0.24 0.24 0.24 0.24 0.24 0.24 0.24 0.24 0.24 0.22 0.22 0.22 0.22 0.24 0.24 0.24 0.24 0.24 0.24 0.26 0.26 0.26 0.26 0.26 0.26 0.26 0.26 0.28 0.28 0.28 0.28 0.28 0.28 0.28 0.26 0.26 0.26 0.24 0.26 0.26 0.26
0.17 0.15 0.15 0.15 0.15 0.13 0.13 0.13 0.15 0.15 0.15 0.15 0.17 0.17 0.17 0.18 0.18 0.18 0.18 0.20 0.20 0.22 0.22 0.24 0.24 0.24 0.24 0.24 0.24 0.24 0.26 0.26 0.26 0.26 0.26 0.24 0.24 0.24 0.24 0.22 0.22 0.22 0.24 0.24 0.24 0.24 0.24 0.24 0.24 0.24 0.26 0.26 0.26 0.26 0.28 0.28 0.28 0.28 0.28 0.28 0.26 0.26 0.26 0.26 0.26 0.24 0.24 0.24 0.24
0.17 0.15 0.15 0.15 0.13 0.13 0.13 0.13 0.15 0.15 0.15 0.17 0.17 0.17 0.18 0.18 0.18 0.18 0.20 0.20 0.22 0.22 0.22 0.22 0.24 0.24 0.24 0.24 0.26 0.26 0.26 0.26 0.26 0.26 0.26 0.26 0.26 0.24 0.24 0.24 0.24 0.24 0.24 0.24 0.24 0.24 0.24 0.24 0.24 0.24 0.24 0.24 0.26 0.26 0.26 0.26 0.26 0.26 0.26 0.26 0.26 0.26 0.26 0.24 0.24 0.24 0.24 0.24 0.24
0.17 0.15 0.15 0.15 0.15 0.13 0.13 0.15 0.15 0.15 0.17 0.17 0.17 0.18 0.18 0.18 0.18 0.18 0.20 0.20 0.22 0.22 0.24 0.24 0.24 0.24 0.24 0.26 0.26 0.26 0.26 0.26 0.28 0.28 0.26 0.26 0.26 0.26 0.26 0.26 0.24 0.24 0.24 0.24 0.24 0.24 0.24 0.24 0.24 0.24 0.24 0.24 0.24 0.26 0.26 0.26 0.26 0.26 0.26 0.24 0.24 0.24 0.24 0.24 0.24 0.24 0.24 0.24 0.24
0.17 0.15 0.15 0.15 0.15 0.15 0.15 0.15 0.15 0.17 0.17 0.17 0.17 0.18 0.18 0.18 0.18 0.20 0.20 0.20 0.22 0.22 0.24 0.24 0.24 0.24 0.26 0.26 0.26 0.26 0.28 0.28 0.28 0.28 0.28 0.26 0.26 0.26 0.26 0.26 0.26 0.26 0.26 0.24 0.24 0.24 0.24 0.24 0.24 0.24 0.24 0.24 0.24 0.24 0.24 0.24 0.24 0.24 0.24 0.24 0.24 0.24 0.24 0.24 0.24 0.24 0.24 0.24 0.24
0.17 0.15 0.15 0.15 0.15 0.15 0.15 0.15 0.17 0.17 0.17 0.17 0.18 0.18 0.18 0.18 0.20 0.20 0.20 0.22 0.22 0.24 0.24 0.24 0.26 0.26 0.26 0.26 0.28 0.28 0.28 0.28 0.28 0.28 0.28 0.28 0.26 0.26 0.26 0.26 0.26 0.26 0.26 0.26 0.26 0.26 0.26 0.26 0.24 0.24 0.24 0.24 0.24 0.24 0.24 0.24 0.24 0.24 0.24 0.24 0.24 0.24 0.24 0.24 0.24 0.24 0.24 0.24 0.24
0.17 0.15 0.15 0.15 0.15 0.15 0.15 0.15 0.17 0.17 0.17 0.17 0.18 0.18 0.18 0.18 0.20 0.20 0.20 0.22 0.22 0.24 0.24 0.26 0.26 0.26 0.28 0.28 0.28 0.28 0.28 0.28 0.28 0.28 0.28 0.28 0.28 0.28 0.28 0.28 0.26 0.26 0.28 0.28 0.28 0.28 0.28 0.26 0.26 0.26 0.26 0.26 0.26 0.24 0.24 0.24 0.24 0.24 0.24 0.24 0.24 0.24 0.24 0.24 0.24 0.24 0.24 0.24 0.24
0.17 0.15 0.15 0.15 0.15 0.15 0.15 0.17 0.17 0.17 0.17 0.17 0.18 0.18 0.18 0.20 0.20 0.20 0.22 0.22 0.24 0.24 0.26 0.26 0.28 0.28 0.28 0.28 0.28 0.28 0.28 0.28 0.28 0.28 0.28 0.28 0.28 0.28 0.28 0.28 0.28 0.28 0.28 0.30 0.30 0.30 0.28 0.28 0.28 0.28 0.28 0.26 0.26 0.26 0.26 0.24 0.24 0.24 0.24 0.24 0.24 0.24 0.24 0.24 0.24 0.24 0.24 0.24 0.24
0.17 0.15 0.15 0.15 0.15 0.15 0.15 0.17 0.17 0.17 0.17 0.17 0.18 0.18 0.18 0.20 0.20 0.22 0.22 0.24 0.24 0.26 0.28 0.28 0.28 0.30 0.30 0.30 0.30 0.30 0.30 0.30 0.30 0.30 0.30 0.30 0.30 0.30 0.30 0.30 0.30 0.30 0.30 0.32 0.32 0.32 0.30 0.30 0.30 0.30 0.28 0.28 0.28 0.28 0.26 0.26 0.26 0.26 0.26 0.26 0.26 0.24 0.24 0.24 0.24 0.24 0.24 0.24 0.26
0.17 0.15 0.15 0.15 0.15 0.15 0.17 0.17 0.17 0.17 0.17 0.17 0.18 0.18 0.20 0.20 0.20 0.22 0.24 0.24 0.26 0.26 0.28 0.28 0.30 0.30 0.30 0.30 0.30 0.30 0.30 0.30 0.30 0.30 0.30 0.30 0.30 0.30 0.30 0.30 0.30 0.32 0.32 0.34 0.34 0.32 0.32 0.32 0.32 0.32 0.32 0.30 0.30 0.30 0.28 0.28 0.28 0.28 0.28 0.26 0.26 0.26 0.26 0.26 0.26 0.26 0.26 0.26 0.26
0.17 0.15 0.15 0.15 0.15 0.15 0.17 0.17 0.17 0.17 0.17 0.18 0.18 0.18 0.20 0.20 0.22 0.22 0.24 0.26 0.26 0.26 0.28 0.28 0.30 0.30 0.30 0.30 0.30 0.30 0.30 0.30 0.30 0.30 0.30 0.32 0.32 0.32 0.32 0.32 0.32 0.32 0.34 0.34 0.34 0.34 0.34 0.34 0.34 0.34 0.34 0.32 0.32 0.32 0.30 0.30 0.30 0.30 0.28 0.28 0.28 0.28 0.28 0.28 0.26 0.26 0.26 0.28 0.26
0.17 0.17 0.17 0.15 0.15 0.15 0.17 0.17 0.17 0.17 0.17 0.18 0.18 0.20 0.20 0.22 0.22 0.24 0.24 0.26 0.26 0.28 0.28 0.30 0.30 0.30 0.30 0.30 0.30 0.30 0.32 0.32 0.32 0.32 0.32 0.32 0.32 0.32 0.32 0.32 0.34 0.34 0.34 0.36 0.36 0.36 0.36 0.36 0.36 0.36 0.36 0.34 0.34 0.34 0.32 0.32 0.32 0.32 0.30 0.30 0.30 0.30 0.30 0.30 0.30 0.28 0.28 0.30 0.28
0.17 0.17 0.17 0.17 0.17 0.17 0.17 0.17 0.17 0.17 0.18 0.18 0.20 0.20 0.22 0.22 0.24 0.24 0.26 0.26 0.28 0.28 0.28 0.28 0.30 0.30 0.30 0.30 0.30 0.32 0.32 0.32 0.32 0.32 0.32 0.32 0.32 0.32 0.32 0.34 0.34 0.34 0.36 0.36 0.36 0.36 0.36 0.36 0.36 0.36 0.36 0.36 0.36 0.34 0.34 0.34 0.34 0.32 0.32 0.32 0.32 0.32 0.32 0.32 0.32 0.32 0.32 0.32 0.32
0.17 0.17 0.17 0.17 0.17 0.17 0.17 0.17 0.17 0.18 0.18 0.18 0.20 0.20 0.22 0.24 0.24 0.26 0.26 0.28 0.28 0.28 0.28 0.28 0.30 0.30 0.30 0.32 0.32 0.32 0.32 0.32 0.32 0.32 0.32 0.32 0.34 0.34 0.34 0.34 0.34 0.36 0.36 0.36 0.36 0.38 0.38 0.38 0.38 0.38 0.38 0.36 0.36 0.36 0.36 0.36 0.34 0.34 0.34 0.34 0.34 0.34 0.34 0.34 0.34 0.36 0.36 0.36 0.36
0.17 0.17 0.17 0.17 0.17 0.17 0.17 0.17 0.18 0.18 0.18 0.20 0.20 0.22 0.24 0.24 0.26 0.26 0.28 0.28 0.28 0.28 0.30 0.30 0.30 0.30 0.30 0.32 0.32 0.32 0.32 0.32 0.32 0.34 0.34 0.34 0.34 0.34 0.34 0.34 0.34 0.36 0.36 0.36 0.38 0.38 0.38 0.38 0.38 0.38 0.38 0.38 0.36 0.36 0.36 0.36 0.34 0.34 0.34 0.34 0.34 0.34 0.36 0.36 0.36 0.38 0.38 0.38 0.38
Wind_Speed
46 46 46 46 46 46 46 46 46 46 46 45 45 45 45 45 45 45 45 45 45 45 44 44 44 44 44 44 45 46 46 46 46 45 45 44 44 43 43 43 43 42 42 43 43 43 43 43 43 43 43 43 43 43 43 43 42 42 42 41 41 40 40 40 40 41 41 42 43
47 47 47 47 47 47 47 47 47 46 46 46 46 46 46 46 46 46 46 46 46 46 46 45 45 45 45 45 46 46 47 47 47 46 46 45 45 44 44 44 43 43 43 43 43 43 43 43 43 43 43 44 44 44 44 44 43 43 43 43 42 42 41 41 41 41 41 42 42
47 48 47 47 47 47 47 47 47 47 47 47 47 47 47 47 47 47 47 47 47 47 47 47 47 46 46 46 46 47 47 48 48 48 47 46 46 45 45 45 44 44 44 44 43 43 44 44 44 44 44 44 44 44 44 44 44 44 44 44 44 43 43 42 42 41 41 42 42
48 48 48 48 48 48 48 48 48 48 48 48 48 48 48 48 48 48 48 48 48 48 48 48 48 47 47 47 47 47 47 48 48 48 48 47 47 46 46 45 45 45 44 44 44 44 44 44 44 44 44 44 44 44 44 44 44 45 45 45 45 44 44 44 43 43 42 42 43
48 48 48 48 48 48 48 48 49 49 49 49 49 49 49 48 48 49 49 49 49 49 49 48 48 48 48 48 48 48 48 48 48 48 48 48 47 47 46 46 46 46 45 45 45 45 44 44 44 44 44 45 45 45 45 45 45 45 45 46 45 45 45 45 45 44 44 43 43
49 49 49 48 49 49 49 49 49 49 49 49 49 49 49 49 49 49 49 49 49 50 49 49 49 49 49 49 49 49 48 48 48 48 48 48 47 47 47 47 47 47 46 46 46 46 45 45 45 45 45 45 45 45 45 45 45 45 46 46 46 46 46 46 46 46 45 45 45
49 49 49 49 49 49 49 49 49 50 50 50 50 50 50 50 50 50 50 50 50 50 50 50 50 50 50 50 49 49 49 49 48 48 48 48 48 48 47 47 47 47 47 47 47 47 46 46 46 46 46 46 46 46 46 46 46 46 46 46 47 47 47 47 47 47 46 46 46
49 49 49 49 49 49 49 50 50 50 50 50 50 51 51 51 51 51 51 51 51 50 50 50 50 51 50 50 50 50 50 49 49 49 49 48 48 48 48 48 48 48 48 48 48 48 48 48 47 47 47 47 47 47 47 47 47 47 47 47 47 47 47 47 47 47 47 47 47
49 49 49 49 49 49 50 50 50 51 51 51 51 51 51 51 51 51 51 51 51 51 51 51 51 51 51 51 51 51 51 50 50 50 50 49 49 49 49 49 49 49 49 49 49 49 49 49 49 49 48 48 48 48 48 48 48 48 48 48 48 48 48 48 48 48 48 48 48
48 49 49 49 49 50 50 51 51 51 51 51 51 51 51 51 51 51 51 51 51 51 52 52 52 52 52 52 52 52 52 51 51 51 51 50 50 50 50 50 50 50 50 50 49 49 50 50 50 50 50 49 49 49 49 49 49 49 49 49 48 48 48 48 48 48 48 48 49
48 49 49 49 50 50 50 51 51 51 51 51 51 51 51 51 51 51 52 52 52 52 53 53 53 53 53 53 53 53 53 52 52 52 52 52 52 52 52 52 51 51 51 51 51 50 50 51 51 51 51 51 50 50 50 50 50 50 50 49 49 49 49 49 49 48 48 49 49
49 49 49 50 50 50 51 51 51 51 51 51 51 51 52 52 52 52 53 53 53 54 54 54 54 54 54 54 54 54 54 54 53 53 53 53 53 53 53 53 53 53 53 53 52 52 52 52 52 52 52 52 51 51 51 51 50 50 50 50 50 50 50 50 49 49 49 49 49
49 49 49 50 50 50 51 51 51 51 51 52 52 52 52 52 53 53 53 54 54 55 55 55 55 55 55 55 55 55 55 55 55 54 54 54 54 54 54 54 54 54 54 54 54 54 54 54 53 53 53 53 52 52 52 52 51 51 51 51 51 51 51 51 50 50 50 49 49
49 49 50 50 50 51 51 51 52 52 52 52 53 53 53 53 54 54 54 54 55 55 55 55 55 55 55 55 55 55 55 55 55 55 55 55 55 55 55 55 55 55 55 55 55 55 55 55 55 55 55 54 54 54 53 53 53 52 52 52 52 52 51 51 51 50 50 50 50
50 50 50 50 51 51 51 52 52 52 53 53 53 54 54 54 54 54 54 55 55 55 55 54 54 54 54 54 54 54 54 54 54 55 55 55 55 55 55 55 55 56 56 56 56 56 56 56 56 56 56 56 56 55 55 54 54 54 53 53 53 53 52 52 52 51 51 51 51
50 50 50 51 51 51 52 52 53 53 53 54 54 54 55 55 55 54 54 54 54 54 53 53 53 53 53 53 52 52 52 53 53 53 53 54 54 54 54 55 55 55 55 56 56 56 56 56 56 57 57 57 57 57 56 56 56 55 55 54 54 54 53 53 53 52 52 52 52
50 50 51 51 52 52 53 53 53 54 54 55 55 55 55 54 54 54 53 53 53 52 52 52 52 51 51 51 51 51 51 51 51 51 52 52 52 53 53 53 54 54 55 55 56 56 56 56 57 57 57 57 58 58 57 57 57 57 57 56 56 55 55 54 54 53 53 53 53
50 51 51 52 52 53 53 54 54 54 55 55 55 55 54 54 53 53 52 52 51 51 51 50 50 50 49 50 50 49 49 50 50 50 51 51 51 52 52 52 53 53 54 54 55 55 56 56 57 57 57 58 58 58 58 58 58 58 58 58 57 57 56 56 55 55 54 54 54
51 51 52 52 53 54 54 54 55 55 55 55 55 54 53 53 52 51 50 50 49 49 49 49 49 48 48 49 49 49 49 49 50 50 50 50 51 51 51 52 52 52 53 53 54 55 55 56 56 57 57 57 58 58 58 58 59 59 59 59 59 58 58 57 57 56 56 55 55
51 52 52 53 54 54 55 55 55 55 55 54 54 53 52 51 50 49 49 48 48 47 47 48 48 48 48 49 49 49 49 49 49 50 50 50 51 51 51 51 51 52 52 53 53 54 54 55 55 56 56 57 57 57 58 58 59 59 59 59 59 59 59 59 58 58 57 57 56
51 52 53 53 54 55 55 55 55 55 54 53 52 51 50 49 48 48 47 47 47 47 47 47 48 48 48 49 49 49 49 49 49 50 50 50 51 51 51 51 51 52 52 52 52 53 53 54 54 55 55 56 56 57 57 58 58 58 59 59 59 60 60 60 59 59 59 58 57
52 53 53 54 54 55 55 55 54 54 53 51 50 49 48 47 47 46 46 46 46 47 47 47 48 48 48 49 49 49 49 49 49 50 50 50 50 51 51 51 51 51 52 52 52 52 53 53 53 54 54 54 55 56 56 56 57 58 58 59 59 60 60 60 60 60 60 59 59
53 53 54 54 55 55 55 54 53 52 51 49 48 47 46 46 46 46 46 46 46 47 47 47 48 48 48 48 49 49 49 49 49 49 49 49 49 50 50 50 50 50 51 51 51 51 51 51 52 52 52 52 53 54 54 55 55 56 56 57 58 58 59 59 60 60 60 60 60
53 54 54 54 54 54 54 53 51 50 49 47 46 46 45 45 45 45 46 46 46 47 47 47 47 47 48 48 48 48 48 48 48 48 48 48 48 48 48 48 48 48 48 48 48 48 49 49 49 49 50 50 51 51 52 52 53 54 54 55 56 57 58 58 59 60 60 60 60
53 54 54 54 54 53 52 51 49 48 47 46 45 45 45 45 45 46 46 46 46 47 47 47 47 47 47 47 47 47 47 47 47 47 47 47 46 46 46 46 46 46 46 46 46 47 47 47 47 47 47 47 48 49 49 50 51 52 53 53 54 55 56 57 58 59 60 60 60
54 54 54 53 53 51 50 49 47 46 45 45 44 44 45 45 45 46 46 46 46 46 46 46 46 46 46 45 45 45 45 45 45 45 45 45 45 45 44 44 44 44 44 44 44 45 45 45 45 45 45 45 46 46 47 48 49 50 51 51 52 53 54 56 57 58 59 59 60
54 53 53 52 51 50 48 47 45 44 44 44 44 45 45 45 45 46 46 46 45 45 45 45 45 44 44 44 44 44 44 44 44 44 44 44 44 44 43 43 43 42 42 43 43 43 44 44 44 44 44 44 44 44 45 46 46 47 48 49 50 51 53 54 55 57 58 58 59
53 53 52 51 49 48 46 45 44 43 43 44 44 45 45 45 45 45 45 45 44 44 44 43 43 43 43 43 43 43 43 43 43 43 43 43 43 43 42 42 41 41 41 42 42 42 42 43 43 43 43 43 43 43 43 44 44 45 46 47 48 49 51 52 53 55 56 57 58
52 51 50 49 48 46 45 44 43 43 43 44 44 45 45 45 45 44 44 43 43 43 43 42 42 42 42 42 42 43 43 43 42 42 42 42 41 41 41 41 40 40 40 41 41 41 41 42 42 42 42 42 42 41 42 42 42 43 44 44 46 47 48 50 51 52 53 55 56
51 50 49 47 46 45 43 43 43 43 43 44 44 44 44 44 44 43 43 43 42 42 42 42 42 42 42 42 42 42 41 41 40 40 39 39 39 39 39 39 38 38 39 39 39 40 40 40 40 41 41 41 41 41 41 41 41 42 42 43 44 45 46 47 48 50 51 52 53
50 48 47 46 44 43 43 42 43 43 43 44 44 44 44 43 43 42 42 42 42 42 42 42 41 41 41 40 40 39 39 38 37 37 37 36 36 36 36 36 36 36 36 37 37 38 38 39 39 39 40 40 40 40 40 40 41 41 41 42 42 43 44 45 46 47 48 50 51
48 47 46 44 43 42 42 42 43 43 43 43 43 43 43 42 42 42 41 41 41 41 41 41 40 40 39 38 37 37 36 35 35 34 34 33 33 33 33 33 33 33 33 34 35 35 36 37 37 38 38 39 39 39 39 40 40 40 41 41 42 42 43 43 44 45 46 47 48
47 45 44 43 42 42 42 42 43 43 43 43 43 42 42 41 41 41 41 41 41 40 40 39 38 38 37 36 35 35 34 33 32 32 32 31 31 31 31 30 30 30 31 31 32 33 33 34 34 35 36 36 37 37 38 38 38 39 39 40 41 41 42 42 43 43 44 45 46
45 44 43 42 41 41 42 42 42 42 42 42 42 41 41 41 41 41 40 40 39 39 38 37 36 36 35 34 33 32 32 31 30 30 30 30 29 29 29 29 28 28 29 30 30 31 31 31 32 32 33 34 34 34 34 35 35 36 36 37 38 39 39 40 41 42 43 43 44
44 43 42 41 41 41 42 42 42 42 42 41 41 41 40 40 40 40 39 39 38 37 36 36 35 34 33 32 31 31 30 30 29 29 29 29 29 28 28 28 28 28 29 29 30 30 30 31 31 31 32 32 31 31 32 32 33 33 34 34 35 36 37 37 38 39 40 41 42
42 41 41 40 41 41 42 42 42 42 41 41 40 40 40 39 39 39 38 37 37 36 36 35 34 33 32 31 30 30 29 29 29 29 29 29 29 29 29 29 29 29 29 29 30 30 30 31 31 31 31 31 31 31 31 31 32 32 32 33 33 34 34 35 36 36 37 38 39
41 40 40 40 40 41 41 42 42 41 41 40 39 39 39 39 38 37 37 36 36 35 35 34 33 32 31 31 30 30 30 29 29 29 29 29 29 29 29 29 29 29 29 29 30 30 30 31 31 31 31 31 30 31 31 31 31 31 32 32 33 33 33 33 33 34 35 36 36
40 39 39 40 40 41 41 41 41 40 40 39 39 38 38 38 37 37 36 35 35 35 34 33 32 31 31 30 30 30 30 29 29 29 29 29 29 29 29 29 29 29 29 29 29 30 30 30 30 30 30 30 30 30 30 31 31 31 32 32 32 32 32 32 32 32 33 34 34
39 39 39 39 40 41 41 41 40 40 39 39 38 38 37 37 36 36 35 35 34 33 33 32 31 30 30 30 29 29 29 29 28 28 28 28 28 28 28 29 29 28 28 28 29 29 29 30 30 30 30 30 29 29 30 30 31 31 31 32 32 32 32 32 31 31 32 33 33
38 38 39 39 40 40 40 40 40 39 38 38 37 37 37 36 36 35 35 34 33 32 31 30 30 29 29 29 29 28 28 28 27 27 28 28 28 28 29 29 29 29 28 28 29 29 29 29 29 29 29 28 28 28 28 29 29 30 30 31 31 31 31 31 31 31 31 31 32
38 38 38 39 39 40 40 39 39 38 37 37 37 36 36 36 35 35 34 33 32 31 30 29 29 29 29 28 28 27 27 27 27 27 27 27 28 28 28 28 29 29 28 28 28 28 28 28 28 28 28 27 26 26 26 26 27 28 28 29 29 29 29 29 29 30 30 30 30
Wind_Direction
304 304 304 304 304 304 304 303 303 302 302 301 300 299 298 297 295 294 294 293 293 292 291 290 289 288 287 286 285 284 284 284 283 282 281 279 278 277 276 275 274 274 273 273 273 272 272 271 270 269 268 268 267 266 266 265 265 264 263 263 262 261 261 260 259 258 257 256 255
305 305 304 304 304 304 304 303 303 302 302 301 300 299 298 297 296 294 293 293 292 291 291 290 289 287 286 285 284 284 284 283 283 282 281 279 278 277 276 275 274 273 273 272 272 272 271 271 270 270 269 268 267 267 266 265 265 265 264 263 262 262 261 260 259 258 257 256 255
305 305 305 305 304 304 304 304 303 302 302 301 300 299 298 297 296 295 293 292 292 291 290 289 288 287 286 285 284 283 283 283 282 282 280 279 277 276 275 274 273 273 272 271 271 271 271 271 270 270 269 268 268 267 266 266 265 265 265 264 263 262 261 260 259 258 258 257 255
305 305 305 305 304 304 304 303 303 302 301 301 300 299 298 297 296 295 294 293 291 290 290 289 288 287 286 285 284 283 282 282 281 281 280 279 277 276 275 273 273 272 271 271 270 270 270 270 270 269 269 269 268 267 266 266 266 265 264 264 263 263 262 260 259 258 258 257 255
305 305 305 304 304 304 303 303 302 302 301 300 300 299 298 297 296 295 294 293 292 291 290 289 288 288 287 286 285 283 282 281 280 280 279 278 277 276 275 273 272 271 271 270 269 269 269 269 269 269 268 268 268 267 267 266 266 265 264 264 264 263 262 261 260 259 258 257 255
305 305 305 304 304 303 303 303 302 302 301 300 300 299 298 297 296 295 294 293 292 292 291 290 289 288 287 286 285 284 283 282 280 279 278 278 277 276 275 273 272 271 270 269 269 268 268 268 268 268 267 267 267 267 266 266 266 265 264 264 263 263 262 261 260 259 258 257 255
305 305 305 304 304 304 303 303 302 302 301 301 300 299 298 298 297 296 295 294 293 292 291 291 290 289 288 287 286 285 284 282 281 279 278 277 277 276 275 274 273 271 270 269 269 268 267 267 267 267 266 266 266 266 266 266 265 265 264 264 263 263 262 262 261 260 258 257 256
306 305 305 305 305 304 304 303 303 302 302 301 300 299 299 298 297 296 295 294 293 293 292 291 290 289 288 288 286 285 284 283 281 280 278 277 276 275 275 274 273 272 271 270 269 268 267 267 267 266 266 266 266 265 265 265 265 265 264 263 263 262 262 261 260 260 259 258 256
306 306 306 305 305 305 304 304 303 303 302 301 300 300 299 298 297 296 296 295 294 293 292 291 290 290 289 288 287 285 284 283 282 280 279 277 276 275 275 274 273 272 271 270 269 268 268 267 267 266 266 265 265 265 265 265 265 264 264 263 262 262 261 260 260 259 259 258 257
307 306 306 306 305 305 304 304 303 303 302 301 301 300 299 298 297 296 295 294 294 293 292 291 290 289 288 287 286 285 284 283 282 280 279 277 276 275 274 274 273 272 271 271 270 269 268 267 267 266 266 265 265 265 265 264 264 264 263 263 262 261 260 259 259 258 258 257 257
307 307 306 306 305 305 304 304 303 303 302 301 301 300 299 298 297 296 295 295 294 293 292 291 290 289 288 287 286 285 284 283 282 280 279 277 276 275 274 273 272 272 271 271 270 269 268 268 267 266 266 265 265 265 264 264 264 263 263 262 262 261 260 259 258 257 257 256 256
307 306 306 306 305 305 304 304 303 303 302 302 301 300 299 298 297 297 296 295 294 293 292 291 290 289 288 287 286 285 284 283 282 280 279 278 276 275 274 273 272 271 271 270 270 269 268 268 267 266 266 265 265 264 264 264 263 263 262 262 261 261 260 259 258 257 256 255 255
307 306 306 306 305 305 305 304 304 303 303 302 301 301 300 299 298 297 296 295 294 293 292 291 290 289 289 288 287 285 284 283 282 280 279 278 277 275 274 273 272 271 271 270 269 269 268 267 266 266 265 265 264 264 264 263 263 262 262 262 261 260 259 258 258 257 256 255 254
307 306 306 306 306 305 305 305 304 304 303 303 302 301 300 300 299 298 297 296 295 294 293 292 291 290 289 288 287 286 285 284 282 281 280 278 277 276 275 273 272 272 271 270 269 269 268 267 266 266 265 264 264 263 263 263 262 262 261 261 260 260 259 258 257 257 256 255 254
307 306 306 306 306 306 306 305 305 304 304 303 302 302 301 300 299 298 297 296 295 295 294 293 292 290 289 288 287 286 285 284 283 281 280 279 277 276 275 274 273 272 271 270 269 269 268 267 266 266 265 264 263 263 262 262 262 261 261 260 260 259 259 258 257 256 256 255 254
307 307 307 307 307 307 306 306 305 305 304 303 303 302 301 300 299 298 298 297 296 295 294 293 292 291 290 289 288 287 285 284 283 282 281 279 278 277 275 274 273 272 271 270 270 269 268 267 266 266 265 264 263 263 262 261 260 260 260 259 259 259 258 258 257 256 255 254 253
308 308 308 308 308 307 307 306 306 305 304 304 303 302 301 300 300 299 298 297 296 295 294 293 292 291 290 289 288 287 286 285 284 282 281 280 279 278 276 275 274 273 272 271 270 269 268 267 266 266 265 265 264 263 262 261 260 259 259 258 258 258 257 257 256 256 255 254 253
309 309 309 309 308 308 307 307 306 305 305 304 303 303 302 301 300 299 298 298 297 296 295 294 293 292 291 290 289 288 287 286 284 283 282 281 280 279 277 276 275 274 272 271 270 269 268 267 267 266 265 265 264 263 262 261 260 259 258 257 257 256 256 256 255 255 254 253 253
310 309 309 309 309 308 308 307 307 306 305 305 304 303 302 301 300 300 299 298 297 297 296 295 294 293 292 291 290 289 288 286 285 284 283 282 280 279 278 277 276 275 273 272 271 270 269 268 267 266 265 264 264 263 262 261 260 259 258 257 256 255 255 255 254 254 253 253 252
310 310 310 309 309 309 308 308 307 306 306 305 304 303 302 302 301 300 299 299 298 297 296 296 295 294 293 292 291 289 288 287 286 285 283 282 281 280 279 278 277 275 274 273 272 270 269 268 267 266 265 264 264 263 262 261 260 259 258 257 256 255 254 254 253 253 252 252 252
311 310 310 310 310 309 309 308 307 307 306 305 304 303 302 302 301 300 299 299 298 298 297 296 295 294 293 292 291 290 289 287 286 285 284 283 282 281 279 278 277 276 275 274 272 271 270 269 268 266 265 264 264 263 262 261 260 259 258 257 256 255 254 253 252 252 251 251 251
311 311 311 310 310 310 309 308 308 307 306 305 304 303 302 302 301 301 300 299 299 298 297 296 295 295 294 293 292 291 290 288 287 286 285 284 283 281 280 279 278 277 275 274 273 272 271 270 268 267 266 265 264 263 262 261 260 259 258 257 256 255 254 252 252 251 251 250 250
312 311 311 311 310 310 309 308 308 307 306 305 304 304 303 302 302 301 301 300 299 299 298 297 296 295 294 294 293 292 291 290 288 287 286 285 284 282 281 280 279 277 276 275 274 273 272 270 269 268 266 265 264 263 262 261 260 259 258 257 256 254 253 252 251 250 250 250 249
312 312 312 311 311 310 309 309 308 307 306 305 305 304 304 303 303 303 302 301 300 300 299 298 297 296 296 295 294 293 292 291 290 289 287 286 285 284 282 281 279 278 277 275 274 273 272 271 270 268 267 266 264 263 262 261 259 258 257 256 255 254 253 252 251 250 250 249 249
313 312 312 311 311 310 310 309 308 307 307 306 306 305 305 305 304 304 303 302 302 301 300 299 298 298 297 296 295 294 293 292 291 290 289 288 286 285 283 282 280 279 278 276 275 274 272 271 270 269 267 266 265 263 262 261 260 258 257 256 255 254 253 252 251 250 249 249 248
313 313 312 312 311 311 310 309 309 308 307 307 307 307 306 306 305 305 304 303 302 302 301 300 300 299 298 297 296 295 294 293 292 291 290 289 287 286 284 283 281 280 278 277 276 274 273 272 270 269 268 266 265 264 262 261 260 258 257 256 255 254 253 252 251 250 250 249 248
313 313 313 312 312 311 311 310 309 309 308 308 308 308 307 307 306 306 305 304 303 303 302 301 301 300 299 298 297 296 295 294 293 292 291 289 288 287 285 284 282 281 279 277 276 275 273 272 270 269 268 266 265 264 262 261 260 259 257 256 255 254 253 252 251 250 250 249 249
314 314 313 313 312 312 311 310 310 310 309 309 309 309 308 308 307 306 305 305 304 304 303 302 301 301 300 299 298 296 296 295 293 292 291 290 289 287 286 285 283 281 280 278 277 275 274 272 271 269 268 266 265 264 263 261 260 259 258 256 255 254 253 252 251 251 250 249 249
314 314 314 313 313 312 312 311 311 310 310 310 310 309 309 308 307 307 306 305 305 304 304 303 302 301 300 299 298 297 296 295 294 293 292 290 289 288 287 285 284 282 281 279 278 276 274 273 271 269 268 266 265 264 262 261 260 259 258 257 256 254 253 252 252 251 250 249 249
315 315 314 314 313 312 312 312 312 311 311 311 311 310 309 309 308 307 307 306 305 305 304 304 303 302 301 301 300 299 298 297 295 294 293 291 290 289 287 286 285 283 282 280 279 277 275 274 272 270 268 267 265 264 262 261 260 259 258 257 256 255 254 253 252 251 250 249 249
315 315 314 314 313 313 313 313 313 313 312 312 312 311 310 309 309 308 307 307 306 305 305 305 304 304 303 303 302 301 299 298 297 296 294 293 291 290 289 288 286 285 283 282 280 278 276 274 273 271 269 267 266 264 263 262 261 260 259 257 256 255 254 253 252 251 250 249 249
316 315 315 314 314 313 313 314 314 314 313 313 312 312 311 310 309 309 308 307 307 307 307 307 306 306 306 305 304 303 301 300 299 298 296 295 294 293 292 290 289 287 285 283 281 279 277 275 273 272 270 268 267 265 264 263 262 260 259 258 257 256 255 254 253 252 251 250 249
316 315 315 314 314 314 315 315 315 315 314 314 313 312 312 311 310 309 309 308 308 308 309 309 309 308 307 307 306 304 303 302 301 300 299 297 296 295 294 293 291 289 287 285 283 281 279 277 275 273 271 269 268 266 265 264 263 262 260 259 258 257 255 254 253 252 251 250 249
316 315 315 315 315 315 316 316 316 316 315 315 314 313 313 312 311 310 310 310 310 310 310 310 310 309 308 307 306 305 304 303 302 301 300 299 298 297 295 294 292 291 288 286 284 283 281 279 277 275 273 271 270 268 267 265 264 263 262 260 259 257 256 255 254 252 251 250 249
316 316 316 316 316 316 317 317 317 317 316 316 315 314 313 313 312 311 311 311 311 311 311 311 310 309 308 308 307 306 305 304 303 302 301 300 298 297 295 294 293 291 289 288 286 284 282 280 279 277 275 273 272 270 268 267 265 264 263 261 260 258 257 256 254 253 252 251 249
317 316 316 316 317 317 318 318 318 318 317 316 316 315 314 314 313 313 313 313 312 312 311 311 310 310 309 308 307 306 305 304 303 302 301 300 299 297 296 295 294 292 291 289 287 286 284 282 280 278 277 275 273 271 270 268 267 265 263 262 260 259 258 256 255 254 253 251 250
317 317 317 317 318 318 319 319 319 318 318 317 316 316 315 314 314 314 314 314 313 312 312 311 311 310 309 308 307 306 305 304 304 303 302 301 300 299 297 296 295 294 292 291 289 287 285 283 281 279 277 275 274 272 270 269 267 266 264 262 261 259 258 257 256 254 253 251 250
317 317 318 318 319 319 319 319 319 319 318 317 317 316 316 315 315 315 315 314 314 313 313 312 311 310 309 309 308 307 306 305 305 304 303 302 301 300 299 297 296 295 294 292 290 288 286 284 281 279 277 275 273 271 270 268 267 265 264 262 261 260 258 257 255 254 253 251 250
318 318 318 319 319 320 320 320 320 319 319 318 317 317 316 316 316 315 315 315 314 314 313 312 311 311 310 309 308 307 307 307 306 305 304 303 302 301 299 298 297 296 295 294 291 289 287 285 282 279 277 274 272 270 269 267 266 264 263 262 261 260 258 257 255 254 252 251 249
318 318 319 319 320 320 320 320 320 320 319 318 318 317 317 317 316 316 316 316 315 314 313 311 311 310 310 309 309 308 308 308 307 306 305 304 303 302 301 300 299 298 297 295 293 291 288 286 284 281 278 276 273 271 269 267 265 264 262 261 260 259 258 256 255 253 252 251 249
318 319 319 320 320 320 321 320 320 320 319 319 318 318 317 317 317 317 317 316 315 314 313 311 311 310 310 310 309 309 308 308 307 307 306 305 305 304 303 302 301 300 299 297 294 292 289 287 284 282 279 277 274 272 270 268 266 264 262 260 259 258 257 255 254 252 251 250 249